Regional Weather Roundup
Issued by NWS Boston, MA

Home | Current Version | Previous Version | Text Only | Print | Product List | Glossary On
Versions: 1 2 3 4 5 6 7 8 9 10 11 12 13 14 15 16 17 18 19 20 21 22 23 24 25 26 27 28 29 30 31 32 33 34 35 36 37 38 39 40 41 42 43 44 45 46 47 48 49 50
000
ASUS41 KBOX 021910
RWRBOX

REGIONAL WEATHER ROUNDUP
NATIONAL WEATHER SERVICE TAUNTON MA
300 PM EDT WED SEP 02 2015

NOTE:  "FAIR" INDICATES FEW OR NO CLOUDS BELOW 12,000 FEET WITH NO
SIGNIFICANT WEATHER AND/OR OBSTRUCTIONS TO VISIBILITY.  THE FOLLOWING
OBSERVATION LOCATIONS DO NOT REPORT PRESENT WEATHER...PROVINCETOWN...
SMITHFIELD...BLOCK ISLAND...KEENE...AND OXFORD.

MAZALL-022000-
EASTERN MASSACHUSETTS

CITY           SKY/WX    TMP DP  RH WIND       PRES   REMARKS
BOSTON         SUNNY     90  62  39 SW10G16   29.90F HX  90
BEVERLY        SUNNY     89  63  41 NW7       29.90S HX  90
LAWRENCE       SUNNY     91  61  36 W6        29.92S HX  91
BEDFORD        SUNNY     89  60  37 W9        29.89F
BLUE HILL        N/A     87  61  41 W13       29.93F
NORWOOD        SUNNY     89  65  44 SW12      29.90F HX  91
MARSHFIELD     SUNNY     88  68  51 SW7       29.92F HX  91
PLYMOUTH       SUNNY     86  66  51 W12G22    29.93F
TAUNTON        SUNNY     87  67  51 SW10      29.91F HX  90
NEW BEDFORD    SUNNY     83  68  60 SW10      29.93F
$$

MAZALL-022000-
CAPE COD AND THE ISLANDS

CITY           SKY/WX    TMP DP  RH WIND       PRES   REMARKS
FALMOUTH       SUNNY     81  64  57 SW14      29.95F
HYANNIS        SUNNY     82  63  52 SW13      29.93F
CHATHAM        SUNNY     79  69  71 SW10G16   29.96F
PROVINCETOWN     N/A     81  64  57 SW14      29.93F
NANTUCKET        N/A    N/A N/A N/A MISG      29.96F
MARTHAS VNYRD  SUNNY     80  66  62 SW13G21   29.96F
$$

MAZALL-022000-
CENTRAL AND WESTERN MASSACHUSETTS

CITY           SKY/WX    TMP DP  RH WIND       PRES   REMARKS
WORCESTER      SUNNY     84  59  42 W9        29.97F
FITCHBURG      SUNNY     91  59  33 W10       29.93F HX  90
ORANGE         SUNNY     86  63  45 SW6       29.94F
SPRINGFIELD    SUNNY     88  64  44 W10       29.92F HX  90
WESTFIELD      SUNNY     88  63  43 NW9       29.93F
NORTH ADAMS    SUNNY     82  66  58 W6        29.96F
PITTSFIELD     SUNNY     82  64  54 W12       29.98F
$$

RIZALL-022000-
RHODE ISLAND

CITY           SKY/WX    TMP DP  RH WIND       PRES   REMARKS
PROVIDENCE     MOSUNNY   89  63  41 SW12      29.92F HAZE    HX  90
NEWPORT        SUNNY     80  68  66 S12G18    29.95F
BLOCK ISLAND   SUNNY     81  66  61 SW15      29.97F
SMITHFIELD     SUNNY     86  64  48 NW3       29.93F
WESTERLY       SUNNY     82  66  58 S12       29.95F
$$

CTZALL-022000-
CONNECTICUT

CITY           SKY/WX    TMP DP  RH WIND       PRES   REMARKS
BRADLEY INTL   MOSUNNY   90  63  40 W9        29.92F HX  91
HARTFORD       MOSUNNY   91  62  37 NW8       29.91F HX  91
BRIDGEPORT     SUNNY     87  67  51 SW13      29.94F HX  90
DANBURY        MOSUNNY   87  61  41 VRB6      29.96F
GROTON         SUNNY     79  70  74 S8        29.94F
NEW HAVEN      MOSUNNY   85  66  53 SW9       29.94F
CHESTER        NOT AVBL
MERIDEN        SUNNY     91  61  36 SW9       29.92F HX  91
WILLIMANTIC    SUNNY     89  61  38 VRB5      29.93F
OXFORD         MOSUNNY   88  64  45 VRB6      29.99F
$$

MEZ002-015-021-024-NHZ003-005-008-011-012-014-VTZ005-008-022000-
NORTHERN NEW ENGLAND

CITY           SKY/WX    TMP DP  RH WIND       PRES   REMARKS
PORTLAND ME    MOSUNNY   82  67  60 SE9       29.90F
BANGOR ME      MOSUNNY   84  66  54 W7        29.88F
CONCORD NH     SUNNY     89  63  41 MISG      29.91F HX  90
MANCHESTER NH  SUNNY     89  55  31 VRB6      29.89F
NASHUA NH      SUNNY     91  55  29 W7        29.91F
PORTSMOUTH NH  SUNNY     89  62  41 W7        29.89F
JAFFREY NH     SUNNY     83  60  45 W10       29.97F
KEENE NH       SUNNY     82  64  54 W3        29.94F
BURLINGTON VT  PTSUNNY   86  65  49 N8        29.93F
MT. WASHINGTON MOSUNNY   61  52  72 W15G24      N/A
$$

NYZ052-076-022000-
EASTERN NEW YORK

CITY           SKY/WX    TMP DP  RH WIND       PRES   REMARKS
ALBANY         MOSUNNY   88  64  44 CALM      29.94F
NEW YORK CITY  PTSUNNY   87  66  49 S12       29.93F
$$

ANZALL-022000-
MARINE OBSERVATIONS

STATION/POSITION TIME  TEMP    WIND        PRES    VSBY  WAVE
                       AIR SEA DIR/SP/G                  HT/PER
                 (UTC) (F)     (DEG/KT/KT) (MB)    (MI)  (FT/S)
BOSTON BUOY      1850   74 73  140/  6/  6 1012.8F         1
BUZZARDS BAY     1800          210/ 14/ 15 1015.4F
NANTUCKET SOUND  1850   73 75  230/ 12/ 14 1013.9F         1/ 2
MASS BAY-STELLWA 1804   74 70  180/ 10/ 12   N/A    1 7/8  1/ 8
ISLE OF SHOALS   1900   75     150/ 13/ 13 1012.1F
S OF BLOCK IS    1808      75                N/A           2/13
$$

......................KEY.........................
  SKY/WX - SKY CONDITION/PRESENT WEATHER
  TMP    - TEMPERATURE IN FAHRENHEIT
  DWPT   - DEWPOINT IN FAHRENHEIT
  RH     - RELATIVE HUMIDITY IN PERCENT
  WIND   - DIRECTION AND SPEED IN MPH
  PRES   - MEAN SEA LEVEL PRESSURE IN INCHES OF HG
  WCI    - WIND CHILL INDEX
  VSB    - VISIBILITY IN MILES
  HX     - HEAT INDEX
  TC     - TEMPERATURE IN CELSIUS
  VRB    - VARIABLE WIND DIRECTION
  N/A    - NOT AVAILABLE



USA.gov is the U.S. government's official web portal to all federal, state and local government web resources and services.